User: anonymous   Login
Location: Unspecified
(0.0000°N, 0.0000°E)
Time: 09:09:50
(UTC+01:00)
Language:

THEMIS D - Orbit

View from above orbital plane
View from above orbital plane
View from above satellite
View from above satellite

Ground track
Ground track

The orbit data is extracted from the following two-line orbital elements,

1 30797U 07004D   18323.43934371 -.00000487  00000-0  00000+0 0  9997
2 30797   5.4398  84.3832 8547349 300.6546   3.4371  0.71865410 41857
Epoch (UTC): 19 November 2018 10:32:39
Eccentricity: 0.8547349
inclination: 5.4398°
perigee height: 1270 km
apogee height: 91270 km
right ascension of ascending node: 84.3832°
argument of perigee: 300.6546°
revolutions per day: 0.71865410
mean anomaly at epoch: 3.4371°
orbit number at epoch: 4185

The dashed part of the orbit path shows where the satellite is in the earth's shadow,  

DLR